Weather in Izyumovka

Russia / Republic of Crimea     45°02′37″N   35°08′00″E
temp.,
°C
wind,
m/s
gust,
m/s
humid.,
%
clouds,
%
prec.,
mm/h
press.,
hPa
HPBL,
m
2 march, tue
tue200:00+1nnw349018 0.0 1029201
03:00+1nw358920 0.0 1030231
06:000nw359229 0.0 1030213
09:00+2nw357915 0.0 1030386
12:00+5nw45570 0.0 10301018
15:00+6wsw455617 0.0 10291176
18:00+5wsw566746 0.0 1027624
21:00+3wsw348159 0.0 1026208
3 march, wed
wed300:00+2w397338 0.0 1024311
03:00+2wsw4117623 0.0 1023400
06:00+3nw6108689 0.0 1022710
09:00+3nw7118091 0.1 10241069
12:00+5nnw8106784 0.1 10251122
15:00+6n685652 0.1 10261274
18:00+6nnw47550 0.0 1027914
21:00+4nw35610 0.0 1028249
4 march, thu
thu400:00+3wnw23630 0.0 102856
03:00+2wsw22660 0.0 102838
06:00+2sw23670 0.0 1027144
09:00+5sw36640 0.0 1026466
12:00+7ssw67610 0.0 10251000
15:00+8sw77570 0.0 1023934
18:00+6sw710690 0.0 1021571
21:00+5sw711750 0.0 1021537
5 march, fri
fri500:00+4ssw812780 0.0 1020515
03:00+4ssw812780 0.0 1019457
06:00+4ssw712840 0.0 1018389
09:00+6ssw710790 0.0 1018454
12:00+8ssw811671 0.0 1017566
15:00+9ssw812610 0.0 1016610
18:00+8ssw712772 0.0 1015494
21:00+7ssw9177334 0.0 1015517
6 march, sat
sat600:00+8sw10166895 0.0 1015467
03:00+7sw6107998 0.0 1014227
06:00+6sw4588100 0.0 1014109
09:00+8sw4682100 0.0 1014171
12:00+12w2557100 0.0 1014638
15:00+8n6783100 0.3 1014420
18:00+4n81191100 0.2 1015500
21:00+1n111495100 1.9 1019785